Location: Buchberg
(46.9333°N, 15.8500°E)
Time: 19:16:10
(UTC+00:00)

Okean 2 - Pass Details

Date: 14 July 2020
Orbit: 559 x 578 km, 82.5° (Epoch: 06 August)

Event Time Altitude Azimuth Distance (km) Brightness Sun altitude
Rises 02:32:11 0° 348° (NNW) 2,764 7.3 -6.8°
Reaches altitude 10° 02:34:23 10° 345° (NNW) 1,861 6.4 -6.5°
Maximum altitude 02:38:26 65° 264° (W) 621 3.4 -6.0°
Drops below altitude 10° 02:42:27 10° 183° (S) 1,842 5.6 -5.5°
Sets 02:44:37 0° 180° (S) 2,732 6.5 -5.2°
